Weather History for Brisbane, QU

Change the Weather History Date:

Tuesday, August 13, 2013

  Actual Average Record
Temperature  
Mean Temperature 65 °F -  
Max Temperature 77 °F 73 °F 77 °F (2013)
Min Temperature 53 °F 52 °F 39 °F (1996)
Growing Degree Days 15 (Base 50)    
Moisture  
Dew Point 56 °F    
Average Humidity 73    
Maximum Humidity 100    
Minimum Humidity 34    
Precipitation  
Precipitation 0.00 in 0.05 in - ()
Sea Level Pressure  
Sea Level Pressure 29.96 in    
Wind  
Wind Speed 6 mph ()    
Max Wind Speed 14 mph    
Max Gust Speed -    
Visibility 8.1 miles    
Events Fog    
Averages and records for this station are not official NWS values.
T = Trace of Precipitation, MM = Missing Value Source: Averaged Metar Reports

Daily Weather History Graph

Daily Weather History Graph

Search for Another Location

Airport:

Trip Planner

Search our weather history database for the weather conditions in past years. The results will help you decide how hot, cold, wet, or windy it might be!

Date:

Astronomy

Aug. 13, 2013 Rise Set
Actual Time 6:19 AM EST 5:25 PM EST
Civil Twilight 5:55 AM EST 5:49 PM EST
Nautical Twilight 5:28 AM EST 6:16 PM EST
Astronomical Twilight 5:00 AM EST 6:44 PM EST
Moon 9:53 AM EST (8/13) 11:18 PM EST (8/13)
Length of Visible Light 11h 53m
Length of Day
11h 05m
Waxing Crescent, 35% of the Moon is Illuminated
Aug 13
Waxing Crescent
Aug 14
First Quarter
Aug 21
Full
Aug 28
Last Quarter
Sep 5
New

Hourly Weather History & Observations

Time (EST) Temp. Dew Point Humidity Pressure Visibility Wind Dir Wind Speed Gust Speed Precip Events Conditions
12:00 AM 62 °F 60 °F 89% 29.91 in 19 mi North 9.2 mph - -   Partly Cloudy
12:00 AM 62.6 °F 59.0 °F 88% 29.89 in - North 9.2 mph - N/A   Clear
12:30 AM 60.8 °F 59.0 °F 94% 29.89 in - North 6.9 mph - N/A   Clear
1:00 AM 60 °F 59 °F 94% 29.91 in - North 5.8 mph - -  
1:00 AM 60.8 °F 59.0 °F 94% 29.89 in - North 5.8 mph - N/A   Clear
1:30 AM 60.8 °F 59.0 °F 94% 29.89 in - NNE 4.6 mph - N/A   Clear
2:00 AM 59.0 °F 57.2 °F 94% 29.89 in - North 8.1 mph - N/A   Clear
2:30 AM 57.2 °F 57.2 °F 100% 29.89 in 6.2 mi North 8.1 mph - N/A   Unknown
3:00 AM 59.0 °F 57.2 °F 94% 29.89 in - South 5.8 mph - N/A   Clear
3:30 AM 55.4 °F 55.4 °F 100% 29.89 in - Calm Calm - N/A   Clear
4:00 AM 56 °F 55 °F 97% 29.90 in - Calm Calm - -  
4:00 AM 57.2 °F 55.4 °F 94% 29.89 in - Calm Calm - N/A   Clear
4:30 AM 53.6 °F 53.6 °F 100% 29.89 in - North 5.8 mph - N/A   Clear
5:00 AM 59.0 °F 55.4 °F 88% 29.89 in - NNW 10.4 mph - N/A   Clear
5:30 AM 62.6 °F 55.4 °F 77% 29.89 in - NNW 9.2 mph - N/A   Clear
6:00 AM 62.6 °F 53.6 °F 72% 29.89 in - NNW 13.8 mph - N/A   Clear
6:30 AM 64.4 °F 53.6 °F 68% 29.92 in - NW 11.5 mph - N/A   Clear
7:00 AM 65 °F 53 °F 57% 29.94 in - WNW 8.1 mph - -  
7:00 AM 66.2 °F 53.6 °F 64% 29.92 in - WNW 8.1 mph - N/A   Clear
7:30 AM 66.2 °F 55.4 °F 68% 29.95 in - WSW 5.8 mph - N/A   Clear
8:00 AM 68.0 °F 55.4 °F 64% 29.95 in - ENE 1.2 mph - N/A   Clear
8:30 AM 69.8 °F 55.4 °F 60% 29.98 in - East 2.3 mph - N/A   Clear
9:00 AM 71.6 °F 57.2 °F 60% 29.98 in - NE 5.8 mph - N/A   Clear
9:30 AM 73.4 °F 55.4 °F 53% 29.98 in - North 4.6 mph - N/A   Clear
10:00 AM 74 °F 54 °F 40% 29.99 in - SSW 6.9 mph - -  
10:00 AM 73.4 °F 55.4 °F 53% 29.98 in - SSW 6.9 mph - N/A   Clear
10:30 AM 77.0 °F 53.6 °F 44% 29.98 in - South 8.1 mph - N/A   Clear
11:00 AM 77.0 °F 48.2 °F 36% 29.98 in - SSW 12.7 mph - N/A   Clear
11:30 AM 77.0 °F 50.0 °F 39% 29.98 in - SSW 12.7 mph - N/A   Clear
12:00 PM 77.0 °F 46.4 °F 34% 29.95 in - South 10.4 mph - N/A   Clear
12:30 PM 77.0 °F 50.0 °F 39% 29.95 in - SE 9.2 mph - N/A   Clear
1:00 PM 75 °F 53 °F 35% 29.96 in - ESE 12.7 mph - -  
1:00 PM 75.2 °F 51.8 °F 44% 29.95 in - ESE 12.7 mph - N/A   Clear
1:30 PM 75.2 °F 51.8 °F 44% 29.95 in - East 10.4 mph - N/A   Clear
2:00 PM 75.2 °F 51.8 °F 44% 29.95 in - ESE 11.5 mph - N/A   Clear
2:30 PM 73.4 °F 55.4 °F 53% 29.95 in - ESE 12.7 mph - N/A   Clear
3:00 PM 73.4 °F 59.0 °F 61% 29.95 in - ESE 10.4 mph - N/A   Clear
3:30 PM 73.4 °F 59.0 °F 61% 29.95 in - ESE 10.4 mph - N/A   Clear
4:00 PM 71.6 °F 60.8 °F 69% 29.95 in - ESE 8.1 mph - N/A   Clear
4:30 PM 69.8 °F 60.8 °F 73% 29.98 in - East 9.2 mph - N/A   Clear
5:00 PM 69.8 °F 59.0 °F 68% 29.98 in - East 9.2 mph - N/A   Clear
5:30 PM 68.0 °F 60.8 °F 78% 30.01 in - East 6.9 mph - N/A   Clear
6:00 PM 67 °F 59 °F 70% 30.02 in 12 mi ESE 6.9 mph - -   Smoke
6:00 PM 68.0 °F 59.0 °F 73% 30.01 in 6.2 mi ESE 6.9 mph - N/A   Partly Cloudy
6:30 PM 66.2 °F 59.0 °F 78% 30.01 in 6.2 mi East 5.8 mph - N/A   Partly Cloudy
7:00 PM 66 °F 59 °F 72% 30.04 in - ESE 5.8 mph - -  
7:00 PM 66.2 °F 59.0 °F 78% 30.04 in 6.2 mi ESE 5.8 mph - N/A   Partly Cloudy
7:30 PM 66.2 °F 59.0 °F 78% 30.04 in 6.2 mi SE 3.5 mph - N/A   Partly Cloudy
8:00 PM 64.4 °F 59.0 °F 83% 30.04 in 6.2 mi ESE 2.3 mph - N/A   Partly Cloudy
8:30 PM 64.4 °F 59.0 °F 83% 30.06 in 6.2 mi ESE 3.5 mph - N/A   Partly Cloudy
9:00 PM 63 °F 60 °F 86% 30.07 in 12 mi Calm Calm - -   Smoke
9:00 PM 62.6 °F 60.8 °F 94% 30.06 in - Calm Calm - N/A   Clear
9:30 PM 60.8 °F 59.0 °F 94% 30.06 in - Calm Calm - N/A   Clear
10:00 PM 61 °F 59 °F 90% 30.06 in - Calm Calm - -  
10:00 PM 60.8 °F 59.0 °F 94% 30.06 in 6.2 mi Calm Calm - N/A Fog Shallow Fog
10:30 PM 60.8 °F 59.0 °F 94% 30.04 in 6.2 mi Calm Calm - N/A Fog Shallow Fog
11:00 PM 59.0 °F 57.2 °F 94% 30.06 in 6.2 mi Calm Calm - N/A Fog Shallow Fog